DECAYED

OBJECT B, 57425 (Decayed)

Orbit data source: Space-Track

You're viewing an Uncataloged Satellite

Recently launched and/or uncataloged satellites may have evolving metadata. Metadata may include but not limited to: Owner, Maufacturer, Bus, Motor, and Mission.

OBJECT B, 57425 was a Chinese satellite in LEO that was launched on Sun, 23 Jul 2023 UTC via a CHANG ZHENG 2D launch vehicle from the Taiyaun Space Center, China (TSC). Unknown objects in Earth's orbit typically refer to objects detected orbiting the Earth but have not yet been identified or cataloged. These objects could be anything from previously untracked satellites, spent rocket stages, debris from satellite collisions, or even natural meteoroids temporarily captured by Earth's gravity. This object's orbit decayed before it could be identified.

Not visible in the next 10 days
Identifier
57425, 2023-104B
Orbit
Decayed
Country
Flag of CNCN / PRC
Related business
Flag of CNBeijing Skysight Technology Co., LTD (CN)
Manufacturer
DFH
Mission
Decayed Commercial Imaging
Bus & Motor
AS, Unknown motor
Mass
~100 kg wet, ~100 kg dry
Launch date (UTC)
2023-07-23 (3 years ago)
Launch vehicle
CHANG ZHENG 2D
Launch site
Taiyaun Space Center, China (TSC)
Object type
Unknown
Shape & HBR
Box + 2 Pan, 0.8 m
Radar Cross Section
0.363 m², Medium (>0.1 m² and < 1m²)

Expand to show TLE details & history
Last TLE update: 1 week ago

TLE from 1 week ago
0 OBJECT B
1 57425U 23104B   26087.82909689  .09696374  24827-5  29503-3 0  9991
2 57425  97.2606 178.5517 0014627 269.1524  90.8102 16.43696874151155
Epoch: 2026-03-28T19:53Z
TLE epoch observation values (Epoch: 2026-03-28T19:53:53.971Z)
Latitude
0.00001°
Longitude
53.83309°
Altitude
159.396 km
Speed
7.81 km/s
True Right ascension
11h 54m 12s
True Declination
0° 00' 00"
Sunlit
Object was in full shadow at epoch
Visualization orbit readout
Latitude
Unknown
Longitude
Unknown
Altitude
Unknown
Speed
Unknown
Apparent Right ascension
Unknown
Apparent Declination
Unknown
Sunlit
N/A
Visualization observer readout
Local Sidereal Time
22:27:44
Azimuth
Unknown
Elevation
Unknown
Doppler factor
Unknown
Orbital elements
Apogee altitude
162.336 km
Perigee altitude
143.231 km
Semi-major axis
6,530.92 km
Eccentricity
0.00146
Inclination
97.2606°
RAAN
178.5517°
Arg. of periapsis
269.1524°
True anomaly
90.97779°
Mean anomaly
90.8102°
Eccentric anomaly
90.894°
Mean motion
4.11227 °/min
Orbital period
87.54 mins
BSTAR
0.00029503
Loading maneuver chart data...
Computing Atmospheric mass density...
Loading historical data...
Loading historical data...
Loading historical data...
Loading historical data...
Loading historical data...
Loading historical data...
Loading historical data...
Other satellites on launch #104 in the year 2023 (2023-07-23 UTC)

Documentation

Showing up to 5 results
|